Location: Strohbehn Observatory
(42.4649°N, 93.8239°W)
Time: 20:21:47
(UTC-06:00)

SL-16 R/B - Visible Passes

Search period start: 22 December 2014 00:00
Search period end: 01 January 2015 00:00
Orbit: 843 x 846 km, 71.0° (Epoch: 21 December)

Date Brightness Start Highest point End Pass type
(mag) Time Alt. Az. Time Alt. Az. Time Alt. Az.
22 Dec 5.0 03:38:54 11° NE 03:38:54 11° NE 03:39:01 10° NE visible
22 Dec 3.6 05:20:49 24° N 05:20:49 24° N 05:23:18 10° N visible
23 Dec 4.0 05:07:34 18° N 05:07:34 18° N 05:09:08 10° N visible
24 Dec 4.4 04:54:11 14° N 04:54:11 14° N 04:54:59 10° NNE visible
25 Dec 4.7 04:40:42 11° NNE 04:40:42 11° NNE 04:40:49 10° NNE visible
